AAL536 TISX-KMIA

Flight info

Callsign AAL536
Flight time N/A
Altitude 34000
Route HMLTN9 STT RTE6 SJU DCT ACONY Y280 SAPPO Y399 ZQA VIICE2
Aircraft B738/M-SDE2E3FGHIRWXY/LB1

Departure

Time 2026-05-05 12:49
Airport Henry E. Rohlsen Airport (TISX)

Arrival

Time N/A
Airport Miami International Airport (KMIA)
Time Latitude Longitude Altitude Speed Heading
2026-05-05 12:17 17.70019 -64.79522 33 ft 0 kts 356°
2026-05-05 12:40 17.70045 -64.79525 33 ft 8 kts 350°
2026-05-05 12:40 17.70067 -64.79531 33 ft 0 kts 341°
2026-05-05 12:41 17.70077 -64.79568 34 ft 13 kts 272°
2026-05-05 12:41 17.70069 -64.79680 36 ft 16 kts 260°
2026-05-05 12:41 17.70058 -64.79790 38 ft 15 kts 265°
2026-05-05 12:41 17.70048 -64.79896 39 ft 14 kts 264°
2026-05-05 12:42 17.70039 -64.79997 40 ft 14 kts 263°
2026-05-05 12:42 17.70031 -64.80094 42 ft 13 kts 262°
2026-05-05 12:42 17.70019 -64.80188 44 ft 14 kts 262°
2026-05-05 12:42 17.70009 -64.80272 45 ft 16 kts 262°
2026-05-05 12:43 17.70008 -64.80279 45 ft 16 kts 262°
2026-05-05 12:43 17.69996 -64.80409 47 ft 19 kts 262°
2026-05-05 12:43 17.69977 -64.80561 50 ft 22 kts 264°
2026-05-05 12:44 17.69957 -64.80718 54 ft 22 kts 270°
2026-05-05 12:44 17.69949 -64.80876 57 ft 21 kts 263°
2026-05-05 12:44 17.69930 -64.81028 53 ft 21 kts 261°
2026-05-05 12:44 17.69919 -64.81176 58 ft 20 kts 269°
2026-05-05 12:45 17.69915 -64.81241 63 ft 20 kts 264°
2026-05-05 12:46 17.69909 -64.81281 63 ft 20 kts 261°
2026-05-05 12:46 17.69902 -64.81317 60 ft 19 kts 257°
2026-05-05 12:47 17.69890 -64.81427 67 ft 19 kts 264°
2026-05-05 12:47 17.69875 -64.81544 68 ft 11 kts 265°
2026-05-05 12:47 17.69909 -64.81606 69 ft 11 kts 337°
2026-05-05 12:48 17.69980 -64.81614 66 ft 10 kts
2026-05-05 12:48 17.70013 -64.81583 66 ft 0 kts 83°
2026-05-05 12:48 17.70018 -64.81545 68 ft 17 kts 82°
2026-05-05 12:48 17.70046 -64.81297 64 ft 66 kts 83°
2026-05-05 12:49 17.70119 -64.80560 49 ft 135 kts 85°
2026-05-05 12:49 17.70210 -64.79409 307 ft 171 kts 88°
2026-05-05 12:49 17.70358 -64.78152 1103 ft 183 kts 85°
2026-05-05 12:49 17.70363 -64.76734 1513 ft 204 kts 92°
2026-05-05 12:50 17.70799 -64.75268 2037 ft 221 kts 65°
2026-05-05 12:50 17.71557 -64.73822 2586 ft 228 kts 66°
2026-05-05 12:50 17.72350 -64.72364 3107 ft 236 kts 55°
2026-05-05 12:50 17.73705 -64.71340 3684 ft 248 kts 23°
2026-05-05 12:51 17.75444 -64.71201 4312 ft 262 kts 348°
2026-05-05 12:51 17.77123 -64.71912 5137 ft 260 kts 338°
2026-05-05 12:51 17.78761 -64.72755 5836 ft 262 kts 335°
2026-05-05 12:51 17.80401 -64.73623 6510 ft 265 kts 335°
2026-05-05 12:52 17.82057 -64.74501 7080 ft 269 kts 334°
2026-05-05 12:52 17.83749 -64.75396 7634 ft 272 kts 334°
2026-05-05 12:52 17.85430 -64.76282 8349 ft 270 kts 334°
2026-05-05 12:52 17.87102 -64.77159 9030 ft 270 kts 333°
2026-05-05 12:53 17.88818 -64.78058 9461 ft 283 kts 333°
2026-05-05 12:53 17.90631 -64.79006 9797 ft 301 kts 333°
2026-05-05 12:53 17.92521 -64.79993 10419 ft 309 kts 333°
2026-05-05 12:53 17.94520 -64.81036 10587 ft 332 kts 333°
2026-05-05 12:54 17.98932 -64.83339 10938 ft 372 kts 333°
2026-05-05 12:54 18.01273 -64.84559 11408 ft 378 kts 333°
2026-05-05 12:54 18.03623 -64.85785 12128 ft 378 kts 333°
2026-05-05 12:55 18.05990 -64.87019 12666 ft 382 kts 333°
2026-05-05 12:55 18.08377 -64.88264 13312 ft 383 kts 333°
2026-05-05 12:55 18.10776 -64.89516 13922 ft 385 kts 333°
2026-05-05 12:55 18.13187 -64.90775 14442 ft 388 kts 333°
2026-05-05 12:56 18.15602 -64.92036 15052 ft 387 kts 333°
2026-05-05 12:56 18.18010 -64.93295 15646 ft 387 kts 333°
2026-05-05 12:56 18.20432 -64.94561 16195 ft 388 kts 332°
2026-05-05 12:56 18.22846 -64.95824 16891 ft 384 kts 332°
2026-05-05 12:57 18.25210 -64.97059 17550 ft 384 kts 332°
2026-05-05 12:57 18.27623 -64.98322 17955 ft 390 kts 333°
2026-05-05 12:57 18.30059 -64.99669 18249 ft 398 kts 325°
2026-05-05 12:57 18.32022 -65.01682 18783 ft 395 kts 304°
2026-05-05 12:58 18.33275 -65.04244 19213 ft 397 kts 288°
2026-05-05 12:58 18.33676 -65.06130 19438 ft 401 kts 277°
2026-05-05 12:58 18.33635 -65.09080 19765 ft 407 kts 260°
2026-05-05 12:58 18.32834 -65.11956 20137 ft 411 kts 252°
2026-05-05 12:59 18.31906 -65.14809 20568 ft 412 kts 252°
2026-05-05 12:59 18.31002 -65.17672 21067 ft 411 kts 252°
2026-05-05 12:59 18.30167 -65.20557 21484 ft 413 kts 257°
2026-05-05 13:00 18.29826 -65.26627 22153 ft 420 kts 275°
2026-05-05 13:00 18.30337 -65.29670 22492 ft 424 kts 281°
2026-05-05 13:01 18.32332 -65.38924 23284 ft 436 kts 281°
2026-05-05 13:01 18.32995 -65.42048 23529 ft 440 kts 281°
2026-05-05 13:01 18.33656 -65.45218 23743 ft 444 kts 281°
2026-05-05 13:01 18.34311 -65.48396 24053 ft 444 kts 281°
2026-05-05 13:02 18.34963 -65.51574 24337 ft 444 kts 280°
2026-05-05 13:02 18.35604 -65.54711 24623 ft 445 kts 281°
2026-05-05 13:02 18.36257 -65.57902 24862 ft 447 kts 281°
2026-05-05 13:02 18.36914 -65.61112 25061 ft 450 kts 281°
2026-05-05 13:03 18.37572 -65.64328 25344 ft 449 kts 280°
2026-05-05 13:03 18.38228 -65.67545 25626 ft 450 kts 281°
2026-05-05 13:03 18.38885 -65.70775 25919 ft 449 kts 281°
2026-05-05 13:03 18.39536 -65.73982 26282 ft 448 kts 281°
2026-05-05 13:04 18.40187 -65.77192 26556 ft 448 kts 280°
2026-05-05 13:04 18.40841 -65.80413 26817 ft 450 kts 281°
2026-05-05 13:04 18.41495 -65.83643 26984 ft 453 kts 281°
2026-05-05 13:04 18.42151 -65.86878 27318 ft 451 kts 281°
2026-05-05 13:05 18.42811 -65.90142 27359 ft 458 kts 281°
2026-05-05 13:05 18.43477 -65.93434 27534 ft 461 kts 282°
2026-05-05 13:05 18.44412 -65.96675 27713 ft 463 kts 292°
2026-05-05 13:05 18.45904 -65.99691 27857 ft 467 kts 301°
2026-05-05 13:06 18.47831 -66.02408 28070 ft 470 kts 311°
2026-05-05 13:06 18.50155 -66.04818 28389 ft 468 kts 315°
2026-05-05 13:06 18.52538 -66.07167 28629 ft 469 kts 315°
2026-05-05 13:06 18.54930 -66.09514 28860 ft 471 kts 315°
2026-05-05 13:07 18.57320 -66.11876 29087 ft 470 kts 315°
2026-05-05 13:07 18.59695 -66.14244 29404 ft 469 kts 315°
2026-05-05 13:07 18.62054 -66.16615 29723 ft 468 kts 315°
2026-05-05 13:07 18.64403 -66.18987 30024 ft 468 kts 315°
2026-05-05 13:08 18.66758 -66.21372 30314 ft 467 kts 315°
2026-05-05 13:08 18.69095 -66.23741 30623 ft 465 kts 314°
2026-05-05 13:08 18.71393 -66.26070 30969 ft 462 kts 314°
2026-05-05 13:08 18.73727 -66.28436 31350 ft 458 kts 314°
2026-05-05 13:09 18.75993 -66.30733 31685 ft 456 kts 314°
2026-05-05 13:09 18.78307 -66.33080 31979 ft 455 kts 314°
2026-05-05 13:09 18.80586 -66.35392 32284 ft 454 kts 314°
2026-05-05 13:09 18.82825 -66.37664 32611 ft 452 kts 314°
2026-05-05 13:10 18.85083 -66.39957 32962 ft 449 kts 314°
2026-05-05 13:10 18.87337 -66.42246 33310 ft 447 kts 314°
2026-05-05 13:10 18.89570 -66.44516 33677 ft 444 kts 313°
2026-05-05 13:10 18.91790 -66.46771 34055 ft 441 kts 313°
2026-05-05 13:11 18.95962 -66.51564 34090 ft 443 kts 308°
2026-05-05 13:11 18.99880 -66.56562 34079 ft 439 kts 307°
2026-05-05 13:12 19.03758 -66.61519 34088 ft 436 kts 307°
2026-05-05 13:12 19.07644 -66.66435 34085 ft 435 kts 307°
2026-05-05 13:13 19.11508 -66.71298 34083 ft 434 kts 307°
2026-05-05 13:13 19.15393 -66.76183 34085 ft 434 kts 307°
2026-05-05 13:14 19.19281 -66.81077 34090 ft 435 kts 307°
2026-05-05 13:14 19.23182 -66.85991 34089 ft 436 kts 307°
2026-05-05 13:15 19.27069 -66.90892 34101 ft 438 kts 307°
2026-05-05 13:15 19.30999 -66.95852 34094 ft 439 kts 307°
2026-05-05 13:16 19.34932 -67.00818 34092 ft 441 kts 307°
2026-05-05 13:16 19.38872 -67.05798 34087 ft 441 kts 307°
2026-05-05 13:17 19.42812 -67.10783 34087 ft 441 kts 307°
2026-05-05 13:17 19.46753 -67.15772 34087 ft 441 kts 307°
2026-05-05 13:18 19.50681 -67.20749 34085 ft 440 kts 307°
2026-05-05 13:18 19.54579 -67.25692 34094 ft 439 kts 307°
2026-05-05 13:19 19.58501 -67.30670 34087 ft 439 kts 307°
2026-05-05 13:19 19.62415 -67.35642 34087 ft 438 kts 307°
2026-05-05 13:20 19.66317 -67.40603 34094 ft 437 kts 306°
2026-05-05 13:20 19.70212 -67.45559 34085 ft 437 kts 306°
2026-05-05 13:21 19.74068 -67.50470 34090 ft 436 kts 306°
2026-05-05 13:21 19.77953 -67.55422 34091 ft 436 kts 306°
2026-05-05 13:22 19.81832 -67.60370 34088 ft 436 kts 306°
2026-05-05 13:22 19.85704 -67.65314 34090 ft 436 kts 306°
2026-05-05 13:23 19.89583 -67.70270 34090 ft 436 kts 306°
2026-05-05 13:23 19.93467 -67.75238 34088 ft 436 kts 306°
2026-05-05 13:24 19.97350 -67.80208 34090 ft 436 kts 306°
2026-05-05 13:24 20.01202 -67.85143 34089 ft 437 kts 306°
2026-05-05 13:25 20.05087 -67.90123 34090 ft 437 kts 306°
2026-05-05 13:25 20.08969 -67.95106 34090 ft 437 kts 306°
2026-05-05 13:26 20.12857 -68.00099 34090 ft 438 kts 306°
2026-05-05 13:26 20.16744 -68.05095 34090 ft 438 kts 306°
2026-05-05 13:27 20.20629 -68.10094 34089 ft 438 kts 306°
2026-05-05 13:27 20.24490 -68.15065 34089 ft 438 kts 306°
2026-05-05 13:28 20.28369 -68.20065 34096 ft 438 kts 306°
2026-05-05 13:28 20.32248 -68.25068 34088 ft 438 kts 306°
2026-05-05 13:29 20.36124 -68.30073 34089 ft 438 kts 306°
2026-05-05 13:29 20.39999 -68.35081 34094 ft 437 kts 306°
2026-05-05 13:30 20.43845 -68.40107 34094 ft 436 kts 302°
2026-05-05 13:30 20.47013 -68.45567 34088 ft 432 kts 296°
2026-05-05 13:31 20.49989 -68.51089 34081 ft 432 kts 296°
2026-05-05 13:31 20.53000 -68.56638 34095 ft 432 kts 297°
2026-05-05 13:32 20.56030 -68.62171 34078 ft 432 kts 297°
2026-05-05 13:32 20.59070 -68.67701 34088 ft 431 kts 297°
2026-05-05 13:33 20.62105 -68.73221 34078 ft 431 kts 297°
2026-05-05 13:33 20.65138 -68.78746 34094 ft 430 kts 297°
2026-05-05 13:34 20.68149 -68.84234 34082 ft 430 kts 297°
2026-05-05 13:34 20.71172 -68.89751 34090 ft 430 kts 297°
2026-05-05 13:35 20.74192 -68.95268 34092 ft 430 kts 297°
2026-05-05 13:35 20.77215 -69.00797 34079 ft 430 kts 297°
2026-05-05 13:36 20.80227 -69.06310 34113 ft 429 kts 297°
2026-05-05 13:36 20.83234 -69.11820 34085 ft 428 kts 297°
2026-05-05 13:37 20.86235 -69.17323 34076 ft 428 kts 297°
2026-05-05 13:37 20.89210 -69.22784 34080 ft 427 kts 297°
2026-05-05 13:38 20.92195 -69.28270 34087 ft 426 kts 297°
2026-05-05 13:38 20.95173 -69.33748 34092 ft 425 kts 297°
2026-05-05 13:39 20.98141 -69.39213 34086 ft 424 kts 297°
2026-05-05 13:39 21.01102 -69.44670 34069 ft 424 kts 297°
2026-05-05 13:40 21.04058 -69.50125 34091 ft 423 kts 297°
2026-05-05 13:40 21.07014 -69.55584 34083 ft 424 kts 297°
2026-05-05 13:41 21.09951 -69.61013 34079 ft 424 kts 297°
2026-05-05 13:41 21.12908 -69.66485 34080 ft 424 kts 297°
2026-05-05 13:42 21.15864 -69.71960 34077 ft 424 kts 297°
2026-05-05 13:42 21.18326 -69.76525 34081 ft 425 kts 297°
2026-05-05 13:43 21.21282 -69.82011 34090 ft 425 kts 297°
2026-05-05 13:43 21.24248 -69.87519 34087 ft 426 kts 297°
2026-05-05 13:44 21.27210 -69.93028 34078 ft 427 kts 297°
2026-05-05 13:44 21.30174 -69.98545 34076 ft 427 kts 297°
2026-05-05 13:45 21.33137 -70.04064 34073 ft 427 kts 297°
2026-05-05 13:45 21.36097 -70.09584 34072 ft 427 kts 297°
2026-05-05 13:46 21.39036 -70.15071 34077 ft 427 kts 297°
2026-05-05 13:46 21.41993 -70.20597 34079 ft 427 kts 297°
2026-05-05 13:47 21.44946 -70.26120 34076 ft 426 kts 297°
2026-05-05 13:47 21.47896 -70.31644 34070 ft 426 kts 297°
2026-05-05 13:48 21.50841 -70.37165 34076 ft 426 kts 297°
2026-05-05 13:48 21.53784 -70.42686 34070 ft 426 kts 297°
2026-05-05 13:49 21.56728 -70.48216 34073 ft 425 kts 297°
2026-05-05 13:49 21.59665 -70.53738 34070 ft 425 kts 297°
2026-05-05 13:50 21.62583 -70.59233 34079 ft 426 kts 298°
2026-05-05 13:50 21.65526 -70.64776 34072 ft 427 kts 298°
2026-05-05 13:51 21.68467 -70.70324 34069 ft 427 kts 298°
2026-05-05 13:51 21.71415 -70.75889 34075 ft 428 kts 298°
2026-05-05 13:52 21.74361 -70.81458 34066 ft 429 kts 298°
2026-05-05 13:52 21.77311 -70.87039 34071 ft 429 kts 297°
2026-05-05 13:53 21.80265 -70.92634 34071 ft 430 kts 298°
2026-05-05 13:53 21.83203 -70.98203 34067 ft 431 kts 298°
2026-05-05 13:54 21.86161 -71.03818 34070 ft 431 kts 298°
2026-05-05 13:54 21.89113 -71.09425 34066 ft 431 kts 298°
2026-05-05 13:55 21.92077 -71.15064 34070 ft 431 kts 298°
2026-05-05 13:55 21.95010 -71.20647 34067 ft 431 kts 298°
2026-05-05 13:56 21.97962 -71.26273 34065 ft 431 kts 298°
2026-05-05 13:56 22.00907 -71.31893 34082 ft 431 kts 297°
2026-05-05 13:57 22.03856 -71.37524 34063 ft 430 kts 297°
2026-05-05 13:57 22.06792 -71.43139 34066 ft 429 kts 297°
2026-05-05 13:58 22.09722 -71.48747 34066 ft 429 kts 297°
2026-05-05 13:58 22.12649 -71.54356 34065 ft 428 kts 297°
2026-05-05 13:59 22.17004 -71.62712 34062 ft 427 kts 297°
2026-05-05 14:00 22.21363 -71.71089 34071 ft 426 kts 297°
2026-05-05 14:00 22.24268 -71.76680 34070 ft 426 kts 297°
2026-05-05 14:01 22.27171 -71.82273 34068 ft 426 kts 297°
2026-05-05 14:01 22.30064 -71.87852 34068 ft 426 kts 297°
2026-05-05 14:02 22.32947 -71.93418 34062 ft 426 kts 297°
2026-05-05 14:02 22.35848 -71.99025 34076 ft 427 kts 297°
2026-05-05 14:03 22.38727 -72.04594 34074 ft 427 kts 297°
2026-05-05 14:03 22.41630 -72.10218 34092 ft 428 kts 296°
2026-05-05 14:04 22.44535 -72.15851 34073 ft 429 kts 296°
2026-05-05 14:04 22.47449 -72.21508 34069 ft 430 kts 296°
2026-05-05 14:05 22.50358 -72.27160 34074 ft 430 kts 296°
2026-05-05 14:05 22.53249 -72.32784 34069 ft 431 kts 296°
2026-05-05 14:06 22.56166 -72.38466 34075 ft 431 kts 296°
2026-05-05 14:06 22.59079 -72.44145 34073 ft 432 kts 296°
2026-05-05 14:07 22.61991 -72.49829 34072 ft 432 kts 296°
2026-05-05 14:07 22.64904 -72.55521 34071 ft 432 kts 296°
2026-05-05 14:08 22.67795 -72.61177 34079 ft 432 kts 296°
2026-05-05 14:08 22.70703 -72.66874 34072 ft 432 kts 296°
2026-05-05 14:09 22.73611 -72.72575 34072 ft 432 kts 296°
2026-05-05 14:09 22.76514 -72.78274 34076 ft 432 kts 296°
2026-05-05 14:10 22.79396 -72.83943 34066 ft 432 kts 296°
2026-05-05 14:10 22.82291 -72.89649 34073 ft 432 kts 296°
2026-05-05 14:11 22.85184 -72.95356 34084 ft 431 kts 296°
2026-05-05 14:11 22.88071 -73.01058 34086 ft 431 kts 296°
2026-05-05 14:12 22.90955 -73.06760 34072 ft 431 kts 296°
2026-05-05 14:12 22.93812 -73.12416 34083 ft 430 kts 296°
2026-05-05 14:13 22.96689 -73.18116 34075 ft 430 kts 296°
2026-05-05 14:13 22.99562 -73.23817 34071 ft 430 kts 296°
2026-05-05 14:14 23.02430 -73.29512 34075 ft 430 kts 296°
2026-05-05 14:14 23.05298 -73.35216 34077 ft 430 kts 296°
2026-05-05 14:15 23.08167 -73.40927 34070 ft 431 kts 296°
2026-05-05 14:15 23.11032 -73.46638 34076 ft 431 kts 296°
2026-05-05 14:16 23.13879 -73.52317 34065 ft 431 kts 296°
2026-05-05 14:16 23.16741 -73.58035 34080 ft 431 kts 296°
2026-05-05 14:17 23.19606 -73.63765 34074 ft 431 kts 296°
2026-05-05 14:17 23.22466 -73.69490 34080 ft 431 kts 296°
2026-05-05 14:18 23.25323 -73.75219 34072 ft 431 kts 296°
2026-05-05 14:18 23.28153 -73.80896 34075 ft 430 kts 296°
2026-05-05 14:19 23.30997 -73.86611 34068 ft 429 kts 296°
2026-05-05 14:19 23.33832 -73.92312 34073 ft 428 kts 296°
2026-05-05 14:20 23.36661 -73.98008 34075 ft 428 kts 296°
2026-05-05 14:20 23.39486 -74.03705 34077 ft 427 kts 296°
2026-05-05 14:21 23.42285 -74.09353 34068 ft 426 kts 296°
2026-05-05 14:21 23.45094 -74.15030 34071 ft 425 kts 296°
2026-05-05 14:22 23.47895 -74.20696 34075 ft 425 kts 296°
2026-05-05 14:22 23.50693 -74.26364 34070 ft 424 kts 296°
2026-05-05 14:23 23.53482 -74.32019 34077 ft 424 kts 296°
2026-05-05 14:23 23.56268 -74.37674 34078 ft 423 kts 296°
2026-05-05 14:24 23.59032 -74.43291 34071 ft 423 kts 296°
2026-05-05 14:24 23.61805 -74.48935 34069 ft 422 kts 296°
2026-05-05 14:25 23.64566 -74.54560 34067 ft 420 kts 296°
2026-05-05 14:25 23.67312 -74.60159 34082 ft 418 kts 296°
2026-05-05 14:26 23.70046 -74.65741 34067 ft 417 kts 296°
2026-05-05 14:26 23.72770 -74.71310 34072 ft 415 kts 296°
2026-05-05 14:27 23.75484 -74.76864 34074 ft 415 kts 296°
2026-05-05 14:27 23.78180 -74.82388 34069 ft 415 kts 296°
2026-05-05 14:28 23.80891 -74.87951 34080 ft 415 kts 296°
2026-05-05 14:28 23.83604 -74.93521 34070 ft 416 kts 296°
2026-05-05 14:29 23.86306 -74.99077 34079 ft 416 kts 296°
2026-05-05 14:29 23.89007 -75.04636 34072 ft 417 kts 296°
2026-05-05 14:30 23.91723 -75.10233 34085 ft 417 kts 296°
2026-05-05 14:30 23.94435 -75.15829 34064 ft 416 kts 296°
2026-05-05 14:31 23.97142 -75.21420 34078 ft 415 kts 296°
2026-05-05 14:31 23.99837 -75.26993 34068 ft 414 kts 296°
2026-05-05 14:32 24.02506 -75.32518 34073 ft 413 kts 296°
2026-05-05 14:32 24.05183 -75.38066 34072 ft 412 kts 296°
2026-05-05 14:33 24.07854 -75.43610 34078 ft 411 kts 296°
2026-05-05 14:33 24.10516 -75.49142 34067 ft 410 kts 296°
2026-05-05 14:34 24.13154 -75.54628 34071 ft 409 kts 296°
2026-05-05 14:34 24.15799 -75.60136 34072 ft 409 kts 296°
2026-05-05 14:35 24.18439 -75.65640 34067 ft 408 kts 296°
2026-05-05 14:35 24.21076 -75.71144 34074 ft 408 kts 296°
2026-05-05 14:36 24.23710 -75.76650 34064 ft 409 kts 296°
2026-05-05 14:36 24.26331 -75.82133 34070 ft 408 kts 296°
2026-05-05 14:37 24.28961 -75.87641 34079 ft 408 kts 296°
2026-05-05 14:37 24.31590 -75.93153 34083 ft 407 kts 296°
2026-05-05 14:38 24.34215 -75.98664 34081 ft 409 kts 296°
2026-05-05 14:38 24.36847 -76.04198 34107 ft 409 kts 296°
2026-05-05 14:39 24.39481 -76.09741 34088 ft 410 kts 296°
2026-05-05 14:39 24.42089 -76.15236 34073 ft 406 kts 296°
2026-05-05 14:40 24.44689 -76.20719 34081 ft 403 kts 296°
2026-05-05 14:40 24.47274 -76.26177 34078 ft 402 kts 296°
2026-05-05 14:41 24.49853 -76.31632 34074 ft 402 kts 296°
2026-05-05 14:41 24.52432 -76.37092 34065 ft 403 kts 296°
2026-05-05 14:42 24.55000 -76.42534 34063 ft 405 kts 296°
2026-05-05 14:42 24.57596 -76.48041 34071 ft 406 kts 296°
2026-05-05 14:43 24.60194 -76.53563 34062 ft 408 kts 297°
2026-05-05 14:43 24.62803 -76.59109 34059 ft 409 kts 296°
2026-05-05 14:44 24.65413 -76.64668 34052 ft 410 kts 296°
2026-05-05 14:44 24.68008 -76.70200 34048 ft 410 kts 296°
2026-05-05 14:45 24.70620 -76.75775 34053 ft 412 kts 296°
2026-05-05 14:45 24.73241 -76.81378 34043 ft 412 kts 296°
2026-05-05 14:46 24.75851 -76.86963 34063 ft 410 kts 296°
2026-05-05 14:46 24.78425 -76.92476 34056 ft 407 kts 296°
2026-05-05 14:47 24.80999 -76.97996 34047 ft 405 kts 296°
2026-05-05 14:47 24.83558 -77.03492 34060 ft 402 kts 296°
2026-05-05 14:48 24.86104 -77.08967 34060 ft 401 kts 296°
2026-05-05 14:48 24.88643 -77.14433 34045 ft 401 kts 296°
2026-05-05 14:49 24.91180 -77.19900 34068 ft 401 kts 296°
2026-05-05 14:49 24.93696 -77.25329 34062 ft 402 kts 297°
2026-05-05 14:50 24.96239 -77.30825 34057 ft 402 kts 297°
2026-05-05 14:50 24.98781 -77.36323 34068 ft 403 kts 297°
2026-05-05 14:51 25.01319 -77.41832 34065 ft 404 kts 295°
2026-05-05 14:51 25.02193 -77.44774 34036 ft 405 kts 282°
2026-05-05 14:51 25.02414 -77.47870 34050 ft 410 kts 270°
2026-05-05 14:52 25.02178 -77.51005 34152 ft 409 kts 268°
2026-05-05 14:52 25.01886 -77.54093 34060 ft 412 kts 268°
2026-05-05 14:52 25.01278 -77.60362 34047 ft 412 kts 268°
2026-05-05 14:53 25.00706 -77.66644 34064 ft 412 kts 268°
2026-05-05 14:53 25.00156 -77.72925 34058 ft 412 kts 268°
2026-05-05 14:54 24.99608 -77.79214 34047 ft 412 kts 269°
2026-05-05 14:54 24.99062 -77.85452 34042 ft 412 kts 268°
2026-05-05 14:55 24.98509 -77.91730 34054 ft 411 kts 268°
2026-05-05 14:55 24.97954 -77.98004 34031 ft 411 kts 269°
2026-05-05 14:56 24.97490 -78.03219 34049 ft 411 kts 269°
2026-05-05 14:56 24.97066 -78.09490 34038 ft 410 kts 272°
2026-05-05 14:57 24.96905 -78.15759 34039 ft 410 kts 273°
2026-05-05 14:57 24.96721 -78.23050 34057 ft 410 kts 273°
2026-05-05 14:58 24.96563 -78.28309 34036 ft 411 kts 272°
2026-05-05 14:58 24.96363 -78.34562 34050 ft 411 kts 272°
2026-05-05 14:59 24.96156 -78.40848 34046 ft 411 kts 272°
2026-05-05 14:59 24.95947 -78.47151 34041 ft 411 kts 272°
2026-05-05 15:00 24.95734 -78.53450 34049 ft 411 kts 272°
2026-05-05 15:00 24.95522 -78.59754 34043 ft 412 kts 272°
2026-05-05 15:01 24.95637 -78.66019 34025 ft 406 kts 282°
2026-05-05 15:01 24.96600 -78.72072 34036 ft 404 kts 285°
2026-05-05 15:02 24.97591 -78.78194 33422 ft 408 kts 284°
2026-05-05 15:02 24.98056 -78.81229 32968 ft 401 kts 283°
2026-05-05 15:02 24.98510 -78.84255 32646 ft 394 kts 283°
2026-05-05 15:03 24.98952 -78.87237 31998 ft 394 kts 282°
2026-05-05 15:03 24.99386 -78.90179 31564 ft 389 kts 282°
2026-05-05 15:03 24.99819 -78.93115 31240 ft 383 kts 282°
2026-05-05 15:03 25.00241 -78.95978 30666 ft 384 kts 281°
2026-05-05 15:04 25.00664 -78.98857 30219 ft 381 kts 281°
2026-05-05 15:04 25.01087 -79.01733 29800 ft 377 kts 281°
2026-05-05 15:04 25.01505 -79.04573 29256 ft 374 kts 281°
2026-05-05 15:04 25.01917 -79.07388 28792 ft 371 kts 281°
2026-05-05 15:05 25.03231 -79.12796 27749 ft 364 kts 298°
2026-05-05 15:05 25.04589 -79.15164 27282 ft 362 kts 303°
2026-05-05 15:05 25.06007 -79.17469 26685 ft 363 kts 303°
2026-05-05 15:06 25.07393 -79.19720 26272 ft 359 kts 303°
2026-05-05 15:06 25.08783 -79.21996 25867 ft 356 kts 303°
2026-05-05 15:06 25.10153 -79.24258 25418 ft 354 kts 302°
2026-05-05 15:06 25.11509 -79.26512 25000 ft 351 kts 302°
2026-05-05 15:07 25.12852 -79.28753 24583 ft 349 kts 302°
2026-05-05 15:07 25.14191 -79.30990 24141 ft 348 kts 302°
2026-05-05 15:07 25.15519 -79.33213 23722 ft 347 kts 302°
2026-05-05 15:07 25.16846 -79.35433 23233 ft 345 kts 302°
2026-05-05 15:08 25.18162 -79.37636 22776 ft 343 kts 302°
2026-05-05 15:08 25.19469 -79.39824 22353 ft 340 kts 302°
2026-05-05 15:08 25.20747 -79.41965 21934 ft 337 kts 302°
2026-05-05 15:08 25.22035 -79.44123 21493 ft 335 kts 302°
2026-05-05 15:09 25.23313 -79.46266 21085 ft 333 kts 302°
2026-05-05 15:09 25.24580 -79.48392 20686 ft 330 kts 302°
2026-05-05 15:09 25.25839 -79.50504 20291 ft 328 kts 302°
2026-05-05 15:09 25.27090 -79.52606 19925 ft 326 kts 302°
2026-05-05 15:10 25.28331 -79.54690 19523 ft 324 kts 302°
2026-05-05 15:10 25.29566 -79.56766 19132 ft 323 kts 302°
2026-05-05 15:10 25.30797 -79.58836 18745 ft 321 kts 302°
2026-05-05 15:10 25.32003 -79.60865 18362 ft 320 kts 302°
2026-05-05 15:11 25.33220 -79.62915 17908 ft 319 kts 302°
2026-05-05 15:11 25.34435 -79.64960 17498 ft 317 kts 302°
2026-05-05 15:11 25.35641 -79.66993 17075 ft 316 kts 302°
2026-05-05 15:11 25.36843 -79.69018 16662 ft 315 kts 302°
2026-05-05 15:12 25.38041 -79.71038 16262 ft 313 kts 301°
2026-05-05 15:12 25.39237 -79.73044 15897 ft 312 kts 302°
2026-05-05 15:12 25.40482 -79.75007 15575 ft 312 kts 303°
2026-05-05 15:12 25.41754 -79.76967 15245 ft 316 kts 303°
2026-05-05 15:13 25.43044 -79.78952 14922 ft 320 kts 303°
2026-05-05 15:13 25.44340 -79.80958 14583 ft 321 kts 303°